Location: Unspecified
(0.0000°N, 0.0000°E)
Time: 01:00:19
(UTC+02:00)

Cosmos 1954 Rocket - Visible Passes

Search period start: 30 May 2016 00:00
Search period end: 09 June 2016 00:00
Orbit: 752 x 782 km, 74.0° (Epoch: 29 May)

Date Brightness Start Highest point End Pass type
(mag) Time Alt. Az. Time Alt. Az. Time Alt. Az.
02 Jun 6.7 23:04:29 15° NW 23:04:29 15° NW 23:05:46 10° NNW visible
03 Jun 5.1 22:24:39 42° WNW 22:24:40 42° WNW 22:29:39 10° N visible
04 Jun 3.9 21:42:08 10° SSW 21:47:28 87° WNW 21:52:47 10° NNE visible
05 Jun 4.3 21:05:12 10° S 21:10:16 45° ESE 21:15:18 10° NNE visible
05 Jun 7.1 22:51:34 10° W 22:52:01 10° WNW 22:52:29 10° WNW visible
06 Jun 5.1 20:29:00 10° SSE 20:33:03 22° ESE 20:37:05 10° NE visible
06 Jun 6.3 22:10:46 10° SW 22:14:48 22° WNW 22:18:50 10° NNW visible
07 Jun 5.1 21:32:32 10° SSW 21:37:35 45° WNW 21:42:38 10° N visible
08 Jun 4.0 20:55:04 10° SSW 21:00:24 88° E 21:05:42 10° NNE visible
